Zorg en Hoop Airport

Jump to: basic info | weather | comments

Related pages: nearby airports | nearby navaids | notams | map

Basic information (top)

Codes: ORG SMZO
Location: lon 5.811080, lat -55.190701, elev 10 ft / 3 m msl
Status: small_airport

Weather (top)

Current conditions (rec'd 2014/10/23 12:00Z):

SMZO 231200Z 12006KT 9999 SCT015 28/25 Q1013 NOSIG

Airport forecast (rec'd 2014/10/20 06:45Z):

TAF TAF SMZO 200400Z 2006/2106 04003KT CAVOK TX34/2018Z TN24/2010Z 
     FM201200 09014KT 9999 SCT020 
      TEMPO 2017/2021 5000 TSRA FEW012 FEW018CB SCT025 
      BECMG 2100/2102 04003KT

Latest comments (top)

KLM flights from Caracas - Paramaribo - Dakar - Madrid - fra: I would like to know if this airport ... [read]

More... (top)

See also NOTAMs and nearby airports and navaids, or visit the Zorg en Hoop Airport page at the main OurAirports website..